Year,Month,Day,Hour,Minute,Value (Times are PST for temperature in C)
2015,09,23,00,00,9.00
2015,09,23,00,01,8.90
2015,09,23,00,02,8.90
2015,09,23,00,03,8.90
2015,09,23,00,04,8.90
2015,09,23,00,05,8.90
2015,09,23,00,06,8.90
2015,09,23,00,07,8.80
2015,09,23,00,08,8.80
2015,09,23,00,09,8.80
2015,09,23,00,10,8.80
2015,09,23,00,11,8.80
2015,09,23,00,12,8.80
2015,09,23,00,13,8.80
2015,09,23,00,14,8.80
2015,09,23,00,15,8.70
2015,09,23,00,16,8.70
2015,09,23,00,17,8.70
2015,09,23,00,18,8.70
2015,09,23,00,19,8.70
2015,09,23,00,20,8.70
2015,09,23,00,21,8.70
2015,09,23,00,22,8.60
2015,09,23,00,23,8.60
2015,09,23,00,24,8.60
2015,09,23,00,25,8.60
2015,09,23,00,26,8.60
2015,09,23,00,27,8.60
2015,09,23,00,28,8.60
2015,09,23,00,29,8.60
2015,09,23,00,30,8.60
2015,09,23,00,31,8.60
2015,09,23,00,32,8.60
2015,09,23,00,33,8.50
2015,09,23,00,34,8.50
2015,09,23,00,35,8.50
2015,09,23,00,36,8.50
2015,09,23,00,37,8.50
2015,09,23,00,38,8.40
2015,09,23,00,39,8.40
2015,09,23,00,40,8.40
2015,09,23,00,41,8.40
2015,09,23,00,42,8.40
2015,09,23,00,43,8.40
2015,09,23,00,44,8.40
2015,09,23,00,45,8.30
2015,09,23,00,46,8.30
2015,09,23,00,47,8.30
2015,09,23,00,48,8.30
2015,09,23,00,49,8.30
2015,09,23,00,50,8.30
2015,09,23,00,51,8.30
2015,09,23,00,52,8.30
2015,09,23,00,53,8.20
2015,09,23,00,54,8.20
2015,09,23,00,55,8.20
2015,09,23,00,56,8.20
2015,09,23,00,57,8.20
2015,09,23,00,58,8.20
2015,09,23,00,59,8.20
2015,09,23,01,00,8.10
2015,09,23,01,01,8.10
2015,09,23,01,02,8.10
2015,09,23,01,03,8.10
2015,09,23,01,04,8.10
2015,09,23,01,05,8.10
2015,09,23,01,06,8.00
2015,09,23,01,07,8.00
2015,09,23,01,08,8.00
2015,09,23,01,09,8.00
2015,09,23,01,10,8.00
2015,09,23,01,11,8.00
2015,09,23,01,12,8.00
2015,09,23,01,13,8.00
2015,09,23,01,14,7.90
2015,09,23,01,15,7.90
2015,09,23,01,16,7.90
2015,09,23,01,17,7.90
2015,09,23,01,18,7.90
2015,09,23,01,19,7.90
2015,09,23,01,20,7.90
2015,09,23,01,21,7.90
2015,09,23,01,22,7.90
2015,09,23,01,23,7.90
2015,09,23,01,24,7.90
2015,09,23,01,25,7.90
2015,09,23,01,26,7.90
2015,09,23,01,27,7.90
2015,09,23,01,28,7.90
2015,09,23,01,29,7.90
2015,09,23,01,30,7.90
2015,09,23,01,31,7.90
2015,09,23,01,32,7.90
2015,09,23,01,33,7.90
2015,09,23,01,34,7.90
2015,09,23,01,35,7.90
2015,09,23,01,36,7.90
2015,09,23,01,37,7.90
2015,09,23,01,38,7.90
2015,09,23,01,39,7.90
2015,09,23,01,40,7.90
2015,09,23,01,41,7.90
2015,09,23,01,42,7.90
2015,09,23,01,43,7.90
2015,09,23,01,44,7.90
2015,09,23,01,45,7.90
2015,09,23,01,46,7.90
2015,09,23,01,47,7.90
2015,09,23,01,48,7.90
2015,09,23,01,49,7.90
2015,09,23,01,50,7.90
2015,09,23,01,51,7.90
2015,09,23,01,52,7.90
2015,09,23,01,53,7.90
2015,09,23,01,54,7.90
2015,09,23,01,55,7.90
2015,09,23,01,56,7.90
2015,09,23,01,57,7.90
2015,09,23,01,58,7.90
2015,09,23,01,59,7.90
2015,09,23,02,00,7.90
2015,09,23,02,01,7.90
2015,09,23,02,02,7.80
2015,09,23,02,03,7.80
2015,09,23,02,04,7.80
2015,09,23,02,05,7.80
2015,09,23,02,06,7.80
2015,09,23,02,07,7.80
2015,09,23,02,08,7.80
2015,09,23,02,09,7.80
2015,09,23,02,10,7.80
2015,09,23,02,11,7.80
2015,09,23,02,12,7.80
2015,09,23,02,13,7.80
2015,09,23,02,14,7.80
2015,09,23,02,15,7.80
2015,09,23,02,16,7.80
2015,09,23,02,17,7.80
2015,09,23,02,18,7.80
2015,09,23,02,19,7.80
2015,09,23,02,20,7.80
2015,09,23,02,21,7.80
2015,09,23,02,22,7.80
2015,09,23,02,23,7.80
2015,09,23,02,24,7.80
2015,09,23,02,25,7.80
2015,09,23,02,26,7.80
2015,09,23,02,27,7.80
2015,09,23,02,28,7.80
2015,09,23,02,29,7.80
2015,09,23,02,30,7.80
2015,09,23,02,31,7.80
2015,09,23,02,32,7.80
2015,09,23,02,33,7.80
2015,09,23,02,34,7.80
2015,09,23,02,35,7.80
2015,09,23,02,36,7.80
2015,09,23,02,37,7.80
2015,09,23,02,38,7.80
2015,09,23,02,39,7.80
2015,09,23,02,40,7.80
2015,09,23,02,41,7.80
2015,09,23,02,42,7.70
2015,09,23,02,43,7.70
2015,09,23,02,44,7.70
2015,09,23,02,45,7.70
2015,09,23,02,46,7.70
2015,09,23,02,47,7.70
2015,09,23,02,48,7.70
2015,09,23,02,49,7.60
2015,09,23,02,50,7.60
2015,09,23,02,51,7.60
2015,09,23,02,52,7.60
2015,09,23,02,53,7.60
2015,09,23,02,54,7.60
2015,09,23,02,55,7.50
2015,09,23,02,56,7.50
2015,09,23,02,57,7.50
2015,09,23,02,58,7.50
2015,09,23,02,59,7.50
2015,09,23,03,00,7.40
2015,09,23,03,01,7.40
2015,09,23,03,02,7.40
2015,09,23,03,03,7.40
2015,09,23,03,04,7.40
2015,09,23,03,05,7.40
2015,09,23,03,06,7.40
2015,09,23,03,07,7.30
2015,09,23,03,08,7.30
2015,09,23,03,09,7.30
2015,09,23,03,10,7.30
2015,09,23,03,11,7.30
2015,09,23,03,12,7.30
2015,09,23,03,13,7.20
2015,09,23,03,14,7.20
2015,09,23,03,15,7.20
2015,09,23,03,16,7.20
2015,09,23,03,17,7.20
2015,09,23,03,18,7.20
2015,09,23,03,19,7.10
2015,09,23,03,20,7.10
2015,09,23,03,21,7.10
2015,09,23,03,22,7.10
2015,09,23,03,23,7.10
2015,09,23,03,24,7.10
2015,09,23,03,25,7.10
2015,09,23,03,26,7.00
2015,09,23,03,27,7.00
2015,09,23,03,28,7.00
2015,09,23,03,29,7.00
2015,09,23,03,30,7.00
2015,09,23,03,31,6.90
2015,09,23,03,32,6.90
2015,09,23,03,33,6.90
2015,09,23,03,34,6.90
2015,09,23,03,35,6.90
2015,09,23,03,36,6.90
2015,09,23,03,37,6.90
2015,09,23,03,38,6.90
2015,09,23,03,39,6.90
2015,09,23,03,40,6.80
2015,09,23,03,41,6.80
2015,09,23,03,42,6.80
2015,09,23,03,43,6.80
2015,09,23,03,44,6.80
2015,09,23,03,45,6.80
2015,09,23,03,46,6.80
2015,09,23,03,47,6.80
2015,09,23,03,48,6.70
2015,09,23,03,49,6.70
2015,09,23,03,50,6.70
2015,09,23,03,51,6.70
2015,09,23,03,52,6.70
2015,09,23,03,53,6.70
2015,09,23,03,54,6.60
2015,09,23,03,55,6.60
2015,09,23,03,56,6.60
2015,09,23,03,57,6.60
2015,09,23,03,58,6.60
2015,09,23,03,59,6.60
2015,09,23,04,00,6.60
2015,09,23,04,01,6.60
2015,09,23,04,02,6.60
2015,09,23,04,03,6.60
2015,09,23,04,04,6.60
2015,09,23,04,05,6.60
2015,09,23,04,06,6.60
2015,09,23,04,07,6.60
2015,09,23,04,08,6.60
2015,09,23,04,09,6.60
2015,09,23,04,10,6.60
2015,09,23,04,11,6.60
2015,09,23,04,12,6.60
2015,09,23,04,13,6.60
2015,09,23,04,14,6.60
2015,09,23,04,15,6.60
2015,09,23,04,16,6.70
2015,09,23,04,17,6.70
2015,09,23,04,18,6.70
2015,09,23,04,19,6.70
2015,09,23,04,20,6.70
2015,09,23,04,21,6.70
2015,09,23,04,22,6.70
2015,09,23,04,23,6.70
2015,09,23,04,24,6.80
2015,09,23,04,25,6.80
2015,09,23,04,26,6.80
2015,09,23,04,27,6.80
2015,09,23,04,28,6.80
2015,09,23,04,29,6.80
2015,09,23,04,30,6.80
2015,09,23,04,31,6.80
2015,09,23,04,32,6.80
2015,09,23,04,33,6.80
2015,09,23,04,34,6.80
2015,09,23,04,35,6.80
2015,09,23,04,36,6.80
2015,09,23,04,37,6.80
2015,09,23,04,38,6.80
2015,09,23,04,39,6.80
2015,09,23,04,40,6.80
2015,09,23,04,41,6.80
2015,09,23,04,42,6.80
2015,09,23,04,43,6.80
2015,09,23,04,44,6.80
2015,09,23,04,45,6.80
2015,09,23,04,46,6.80
2015,09,23,04,47,6.80
2015,09,23,04,48,6.80
2015,09,23,04,49,6.80
2015,09,23,04,50,6.70
2015,09,23,04,51,6.70
2015,09,23,04,52,6.70
2015,09,23,04,53,6.70
2015,09,23,04,54,6.70
2015,09,23,04,55,6.70
2015,09,23,04,56,6.70
2015,09,23,04,57,6.70
2015,09,23,04,58,6.70
2015,09,23,04,59,6.70
2015,09,23,05,00,6.70
2015,09,23,05,01,6.70
2015,09,23,05,02,6.70
2015,09,23,05,03,6.80
2015,09,23,05,04,6.80
2015,09,23,05,05,6.80
2015,09,23,05,06,6.80
2015,09,23,05,07,6.80
2015,09,23,05,08,6.80
2015,09,23,05,09,6.90
2015,09,23,05,10,6.90
2015,09,23,05,11,6.90
2015,09,23,05,12,7.00
2015,09,23,05,13,7.00
2015,09,23,05,14,7.10
2015,09,23,05,15,7.10
2015,09,23,05,16,7.20
2015,09,23,05,17,7.30
2015,09,23,05,18,7.30
2015,09,23,05,19,7.40
2015,09,23,05,20,7.50
2015,09,23,05,21,7.60
2015,09,23,05,22,7.70
2015,09,23,05,23,7.80
2015,09,23,05,24,7.90
2015,09,23,05,25,8.00
2015,09,23,05,26,8.10
2015,09,23,05,27,8.20
2015,09,23,05,28,8.30
2015,09,23,05,29,8.40
2015,09,23,05,30,8.50
2015,09,23,05,31,8.60
2015,09,23,05,32,8.70
2015,09,23,05,33,8.70
2015,09,23,05,34,8.80
2015,09,23,05,35,8.90
2015,09,23,05,36,8.90
2015,09,23,05,37,9.00
2015,09,23,05,38,9.00
2015,09,23,05,39,9.10
2015,09,23,05,40,9.10
2015,09,23,05,41,9.10
2015,09,23,05,42,9.10
2015,09,23,05,43,9.10
2015,09,23,05,44,9.20
2015,09,23,05,45,9.20
2015,09,23,05,46,9.20
2015,09,23,05,47,9.20
2015,09,23,05,48,9.20
2015,09,23,05,49,9.20
2015,09,23,05,50,9.20
2015,09,23,05,51,9.20
2015,09,23,05,52,9.20
2015,09,23,05,53,9.30
2015,09,23,05,54,9.30
2015,09,23,05,55,9.40
2015,09,23,05,56,9.40
2015,09,23,05,57,9.40
2015,09,23,05,58,9.40
2015,09,23,05,59,9.40
2015,09,23,06,00,9.40
2015,09,23,06,01,9.40
2015,09,23,06,02,9.40
2015,09,23,06,03,9.50
2015,09,23,06,04,9.50
2015,09,23,06,05,9.50
2015,09,23,06,06,9.60
2015,09,23,06,07,9.60
2015,09,23,06,08,9.70
2015,09,23,06,09,9.70
2015,09,23,06,10,9.70
2015,09,23,06,11,9.80
2015,09,23,06,12,9.80
2015,09,23,06,13,9.80
2015,09,23,06,14,9.80
2015,09,23,06,15,9.90
2015,09,23,06,16,9.90
2015,09,23,06,17,9.90
2015,09,23,06,18,9.90
2015,09,23,06,19,10.00
2015,09,23,06,20,10.00
2015,09,23,06,21,10.00
2015,09,23,06,22,10.00
2015,09,23,06,23,10.10
2015,09,23,06,24,10.10
2015,09,23,06,25,10.10
2015,09,23,06,26,10.10
2015,09,23,06,27,10.10
2015,09,23,06,28,10.10
2015,09,23,06,29,10.10
2015,09,23,06,30,10.20
2015,09,23,06,31,10.20
2015,09,23,06,32,10.20
2015,09,23,06,33,10.20
2015,09,23,06,34,10.20
2015,09,23,06,35,10.20
2015,09,23,06,36,10.20
2015,09,23,06,37,10.20
2015,09,23,06,38,10.20
2015,09,23,06,39,10.20
2015,09,23,06,40,10.20
2015,09,23,06,41,10.30
2015,09,23,06,42,10.30
2015,09,23,06,43,10.30
2015,09,23,06,44,10.30
2015,09,23,06,45,10.30
2015,09,23,06,46,10.30
2015,09,23,06,47,10.30
2015,09,23,06,48,10.30
2015,09,23,06,49,10.40
2015,09,23,06,50,10.40
2015,09,23,06,51,10.40
2015,09,23,06,52,10.40
2015,09,23,06,53,10.40
2015,09,23,06,54,10.40
2015,09,23,06,55,10.40
2015,09,23,06,56,10.40
2015,09,23,06,57,10.40
2015,09,23,06,58,10.40
2015,09,23,06,59,10.40
2015,09,23,07,00,10.40
2015,09,23,07,01,10.40
2015,09,23,07,02,10.40
2015,09,23,07,03,10.40
2015,09,23,07,04,10.40
2015,09,23,07,05,10.40
2015,09,23,07,06,10.40
2015,09,23,07,07,10.40
2015,09,23,07,08,10.40
2015,09,23,07,09,10.40
2015,09,23,07,10,10.40
2015,09,23,07,11,10.40
2015,09,23,07,12,10.40
2015,09,23,07,13,10.40
2015,09,23,07,14,10.30
2015,09,23,07,15,10.30
2015,09,23,07,16,10.30
2015,09,23,07,17,10.30
2015,09,23,07,18,10.30
2015,09,23,07,19,10.30
2015,09,23,07,20,10.30
2015,09,23,07,21,10.30
2015,09,23,07,22,10.30
2015,09,23,07,23,10.20
2015,09,23,07,24,10.20
2015,09,23,07,25,10.20
2015,09,23,07,26,10.20
2015,09,23,07,27,10.20
2015,09,23,07,28,10.20
2015,09,23,07,29,10.20
2015,09,23,07,30,10.20
2015,09,23,07,31,10.20
2015,09,23,07,32,10.20
2015,09,23,07,33,10.20
2015,09,23,07,34,10.20
2015,09,23,07,35,10.20
2015,09,23,07,36,10.20
2015,09,23,07,37,10.20
2015,09,23,07,38,10.20
2015,09,23,07,39,10.20
2015,09,23,07,40,10.20
2015,09,23,07,41,10.20
2015,09,23,07,42,10.20
2015,09,23,07,43,10.20
2015,09,23,07,44,10.30
2015,09,23,07,45,10.30
2015,09,23,07,46,10.30
2015,09,23,07,47,10.30
2015,09,23,07,48,10.30
2015,09,23,07,49,10.30
2015,09,23,07,50,10.30
2015,09,23,07,51,10.30
2015,09,23,07,52,10.40
2015,09,23,07,53,10.40
2015,09,23,07,54,10.40
2015,09,23,07,55,10.40
2015,09,23,07,56,10.40
2015,09,23,07,57,10.40
2015,09,23,07,58,10.40
2015,09,23,07,59,10.40
2015,09,23,08,00,10.40
2015,09,23,08,01,10.40
2015,09,23,08,02,10.40
2015,09,23,08,03,10.40
2015,09,23,08,04,10.50
2015,09,23,08,05,10.60
2015,09,23,08,06,10.60
2015,09,23,08,07,10.60
2015,09,23,08,08,10.70
2015,09,23,08,09,10.70
2015,09,23,08,10,10.80
2015,09,23,08,11,10.80
2015,09,23,08,12,10.90
2015,09,23,08,13,11.00
2015,09,23,08,14,11.00
2015,09,23,08,15,11.10
2015,09,23,08,16,11.20
2015,09,23,08,17,11.20
2015,09,23,08,18,11.30
2015,09,23,08,19,11.40
2015,09,23,08,20,11.40
2015,09,23,08,21,11.50
2015,09,23,08,22,11.60
2015,09,23,08,23,11.60
2015,09,23,08,24,11.60
2015,09,23,08,25,11.70
2015,09,23,08,26,11.70
2015,09,23,08,27,11.80
2015,09,23,08,28,11.80
2015,09,23,08,29,11.80
2015,09,23,08,30,11.80
2015,09,23,08,31,11.90
2015,09,23,08,32,11.90
2015,09,23,08,33,11.90
2015,09,23,08,34,11.90
2015,09,23,08,35,11.90
2015,09,23,08,36,11.90
2015,09,23,08,37,11.90
2015,09,23,08,38,11.90
2015,09,23,08,39,12.00
2015,09,23,08,40,12.00
2015,09,23,08,41,12.00
2015,09,23,08,42,12.00
2015,09,23,08,43,12.00
2015,09,23,08,44,12.00
2015,09,23,08,45,12.00
2015,09,23,08,46,12.10
2015,09,23,08,47,12.10
2015,09,23,08,48,12.10
2015,09,23,08,49,12.10
2015,09,23,08,50,12.10
2015,09,23,08,51,12.10
2015,09,23,08,52,12.10
2015,09,23,08,53,12.20
2015,09,23,08,54,12.20
2015,09,23,08,55,12.20
2015,09,23,08,56,12.20
2015,09,23,08,57,12.20
2015,09,23,08,58,12.20
2015,09,23,08,59,12.30
2015,09,23,09,00,12.30
2015,09,23,09,01,12.30
2015,09,23,09,02,12.30
2015,09,23,09,03,12.40
2015,09,23,09,04,12.40
2015,09,23,09,05,12.40
2015,09,23,09,06,12.40
2015,09,23,09,07,12.40
2015,09,23,09,08,12.40
2015,09,23,09,09,12.40
2015,09,23,09,10,12.50
2015,09,23,09,11,12.50
2015,09,23,09,12,12.50
2015,09,23,09,13,12.50
2015,09,23,09,14,12.50
2015,09,23,09,15,12.50
2015,09,23,09,16,12.50
2015,09,23,09,17,12.60
2015,09,23,09,18,12.60
2015,09,23,09,19,12.60
2015,09,23,09,20,12.60
2015,09,23,09,21,12.60
2015,09,23,09,22,12.60
2015,09,23,09,23,12.60
2015,09,23,09,24,12.60
2015,09,23,09,25,12.60
2015,09,23,09,26,12.60
2015,09,23,09,27,12.70
2015,09,23,09,28,12.70
2015,09,23,09,29,12.70
2015,09,23,09,30,12.80
2015,09,23,09,31,12.80
2015,09,23,09,32,12.80
2015,09,23,09,33,12.80
2015,09,23,09,34,12.80
2015,09,23,09,35,12.80
2015,09,23,09,36,12.80
2015,09,23,09,37,12.80
2015,09,23,09,38,12.80
2015,09,23,09,39,12.80
2015,09,23,09,40,12.80
2015,09,23,09,41,12.80
2015,09,23,09,42,12.70
2015,09,23,09,43,12.70
2015,09,23,09,44,12.70
2015,09,23,09,45,12.70
2015,09,23,09,46,12.70
2015,09,23,09,47,12.70
2015,09,23,09,48,12.70
2015,09,23,09,49,12.70
2015,09,23,09,50,12.70
2015,09,23,09,51,12.70
2015,09,23,09,52,12.70
2015,09,23,09,53,12.70
2015,09,23,09,54,12.70
2015,09,23,09,55,12.70
2015,09,23,09,56,12.70
2015,09,23,09,57,12.70
2015,09,23,09,58,12.60
2015,09,23,09,59,12.60
2015,09,23,10,00,12.60
2015,09,23,10,01,12.60
2015,09,23,10,02,12.60
2015,09,23,10,03,12.60
2015,09,23,10,04,12.60
2015,09,23,10,05,12.60
2015,09,23,10,06,12.60
2015,09,23,10,07,12.50
2015,09,23,10,08,12.50
2015,09,23,10,09,12.50
2015,09,23,10,10,12.50
2015,09,23,10,11,12.50
2015,09,23,10,12,12.50
2015,09,23,10,13,12.50
2015,09,23,10,14,12.50
2015,09,23,10,15,12.50
2015,09,23,10,16,12.60
2015,09,23,10,17,12.60
2015,09,23,10,18,12.60
2015,09,23,10,19,12.60
2015,09,23,10,20,12.60
2015,09,23,10,21,12.60
2015,09,23,10,22,12.60
2015,09,23,10,23,12.60
2015,09,23,10,24,12.60
2015,09,23,10,25,12.60
2015,09,23,10,26,12.60
2015,09,23,10,27,12.70
2015,09,23,10,28,12.70
2015,09,23,10,29,12.70
2015,09,23,10,30,12.70
2015,09,23,10,31,12.70
2015,09,23,10,32,12.80
2015,09,23,10,33,12.80
2015,09,23,10,34,12.80
2015,09,23,10,35,12.80
2015,09,23,10,36,12.90
2015,09,23,10,37,12.90
2015,09,23,10,38,12.90
2015,09,23,10,39,13.00
2015,09,23,10,40,13.00
2015,09,23,10,41,13.10
2015,09,23,10,42,13.10
2015,09,23,10,43,13.20
2015,09,23,10,44,13.20
2015,09,23,10,45,13.30
2015,09,23,10,46,13.40
2015,09,23,10,47,13.40
2015,09,23,10,48,13.40
2015,09,23,10,49,13.50
2015,09,23,10,50,13.60
2015,09,23,10,51,13.70
2015,09,23,10,52,13.80
2015,09,23,10,53,13.80
2015,09,23,10,54,13.90
2015,09,23,10,55,14.00
2015,09,23,10,56,14.00
2015,09,23,10,57,14.10
2015,09,23,10,58,14.10
2015,09,23,10,59,14.10
2015,09,23,11,00,14.10
2015,09,23,11,01,14.10
2015,09,23,11,02,14.20
2015,09,23,11,03,14.20
2015,09,23,11,04,14.20
2015,09,23,11,05,14.20
2015,09,23,11,06,14.20
2015,09,23,11,07,14.30
2015,09,23,11,08,14.30
2015,09,23,11,09,14.30
2015,09,23,11,10,14.40
2015,09,23,11,11,14.40
2015,09,23,11,12,14.40
2015,09,23,11,13,14.50
2015,09,23,11,14,14.60
2015,09,23,11,15,14.70
2015,09,23,11,16,14.80
2015,09,23,11,17,14.80
2015,09,23,11,18,14.90
2015,09,23,11,19,15.00
2015,09,23,11,20,15.00
2015,09,23,11,21,15.00
2015,09,23,11,22,15.10
2015,09,23,11,23,15.10
2015,09,23,11,24,15.20
2015,09,23,11,25,15.20
2015,09,23,11,26,15.20
2015,09,23,11,27,15.30
2015,09,23,11,28,15.40
2015,09,23,11,29,15.40
2015,09,23,11,30,15.50
2015,09,23,11,31,15.50
2015,09,23,11,32,15.50
2015,09,23,11,33,15.50
2015,09,23,11,34,15.60
2015,09,23,11,35,15.60
2015,09,23,11,36,15.50
2015,09,23,11,37,15.50
2015,09,23,11,38,15.40
2015,09,23,11,39,15.40
2015,09,23,11,40,15.30
2015,09,23,11,41,15.30
2015,09,23,11,42,15.30
2015,09,23,11,43,15.30
2015,09,23,11,44,15.40
2015,09,23,11,45,15.40
2015,09,23,11,46,15.50
2015,09,23,11,47,15.50
2015,09,23,11,48,15.60
2015,09,23,11,49,15.60
2015,09,23,11,50,15.60
2015,09,23,11,51,15.60
2015,09,23,11,52,15.50
2015,09,23,11,53,15.50
2015,09,23,11,54,15.40
2015,09,23,11,55,15.40
2015,09,23,11,56,15.50
2015,09,23,11,57,15.50
2015,09,23,11,58,15.60
2015,09,23,11,59,15.70
2015,09,23,12,00,15.70
2015,09,23,12,01,15.80
2015,09,23,12,02,15.80
2015,09,23,12,03,15.80
2015,09,23,12,04,15.80
2015,09,23,12,05,15.80
2015,09,23,12,06,15.80
2015,09,23,12,07,15.90
2015,09,23,12,08,15.90
2015,09,23,12,09,15.90
2015,09,23,12,10,15.90
2015,09,23,12,11,16.00
2015,09,23,12,12,16.00
2015,09,23,12,13,16.00
2015,09,23,12,14,16.00
2015,09,23,12,15,16.00
2015,09,23,12,16,16.00
2015,09,23,12,17,15.90
2015,09,23,12,18,15.90
2015,09,23,12,19,15.90
2015,09,23,12,20,15.80
2015,09,23,12,21,15.80
2015,09,23,12,22,15.80
2015,09,23,12,23,15.80
2015,09,23,12,24,15.70
2015,09,23,12,25,15.70
2015,09,23,12,26,15.70
2015,09,23,12,27,15.60
2015,09,23,12,28,15.50
2015,09,23,12,29,15.50
2015,09,23,12,30,15.40
2015,09,23,12,31,15.40
2015,09,23,12,32,15.40
2015,09,23,12,33,15.40
2015,09,23,12,34,15.40
2015,09,23,12,35,15.50
2015,09,23,12,36,15.50
2015,09,23,12,37,15.60
2015,09,23,12,38,15.60
2015,09,23,12,39,15.60
2015,09,23,12,40,15.70
2015,09,23,12,41,15.70
2015,09,23,12,42,15.70
2015,09,23,12,43,15.70
2015,09,23,12,44,15.70
2015,09,23,12,45,15.70
2015,09,23,12,46,15.80
2015,09,23,12,47,15.80
2015,09,23,12,48,15.90
2015,09,23,12,49,16.00
2015,09,23,12,50,16.10
2015,09,23,12,51,16.10
2015,09,23,12,52,16.20
2015,09,23,12,53,16.20
2015,09,23,12,54,16.20
2015,09,23,12,55,16.20
2015,09,23,12,56,16.20
2015,09,23,12,57,16.20
2015,09,23,12,58,16.20
2015,09,23,12,59,16.20
2015,09,23,13,00,16.20
2015,09,23,13,01,16.20
2015,09,23,13,02,16.20
2015,09,23,13,03,16.20
2015,09,23,13,04,16.20
2015,09,23,13,05,16.20
2015,09,23,13,06,16.20
2015,09,23,13,07,16.20
2015,09,23,13,08,16.20
2015,09,23,13,09,16.20
2015,09,23,13,10,16.20
2015,09,23,13,11,16.20
2015,09,23,13,12,16.20
2015,09,23,13,13,16.10
2015,09,23,13,14,16.10
2015,09,23,13,15,16.00
2015,09,23,13,16,16.00
2015,09,23,13,17,15.90
2015,09,23,13,18,15.90
2015,09,23,13,19,15.90
2015,09,23,13,20,15.80
2015,09,23,13,21,15.70
2015,09,23,13,22,15.70
2015,09,23,13,23,15.70
2015,09,23,13,24,15.60
2015,09,23,13,25,15.60
2015,09,23,13,26,15.60
2015,09,23,13,27,15.50
2015,09,23,13,28,15.50
2015,09,23,13,29,15.40
2015,09,23,13,30,15.40
2015,09,23,13,31,15.40
2015,09,23,13,32,15.40
2015,09,23,13,33,15.30
2015,09,23,13,34,15.30
2015,09,23,13,35,15.20
2015,09,23,13,36,15.10
2015,09,23,13,37,15.10
2015,09,23,13,38,15.00
2015,09,23,13,39,15.00
2015,09,23,13,40,14.90
2015,09,23,13,41,14.90
2015,09,23,13,42,14.90
2015,09,23,13,43,14.80
2015,09,23,13,44,14.80
2015,09,23,13,45,14.70
2015,09,23,13,46,14.70
2015,09,23,13,47,14.60
2015,09,23,13,48,14.50
2015,09,23,13,49,14.50
2015,09,23,13,50,14.40
2015,09,23,13,51,14.30
2015,09,23,13,52,14.30
2015,09,23,13,53,14.20
2015,09,23,13,54,14.20
2015,09,23,13,55,14.10
2015,09,23,13,56,14.10
2015,09,23,13,57,14.10
2015,09,23,13,58,14.00
2015,09,23,13,59,14.00
2015,09,23,14,00,14.00
2015,09,23,14,01,13.90
2015,09,23,14,02,13.80
2015,09,23,14,03,13.80
2015,09,23,14,04,13.80
2015,09,23,14,05,13.80
2015,09,23,14,06,13.70
2015,09,23,14,07,13.70
2015,09,23,14,08,13.70
2015,09,23,14,09,13.60
2015,09,23,14,10,13.60
2015,09,23,14,11,13.60
2015,09,23,14,12,13.60
2015,09,23,14,13,13.60
2015,09,23,14,14,13.60
2015,09,23,14,15,13.50
2015,09,23,14,16,13.50
2015,09,23,14,17,13.50
2015,09,23,14,18,13.50
2015,09,23,14,19,13.50
2015,09,23,14,20,13.50
2015,09,23,14,21,13.40
2015,09,23,14,22,13.40
2015,09,23,14,23,13.40
2015,09,23,14,24,13.40
2015,09,23,14,25,13.40
2015,09,23,14,26,13.40
2015,09,23,14,27,13.40
2015,09,23,14,28,13.40
2015,09,23,14,29,13.40
2015,09,23,14,30,13.40
2015,09,23,14,31,13.30
2015,09,23,14,32,13.30
2015,09,23,14,33,13.30
2015,09,23,14,34,13.30
2015,09,23,14,35,13.30
2015,09,23,14,36,13.40
2015,09,23,14,37,13.40
2015,09,23,14,38,13.40
2015,09,23,14,39,13.40
2015,09,23,14,40,13.40
2015,09,23,14,41,13.40
2015,09,23,14,42,13.40
2015,09,23,14,43,13.40
2015,09,23,14,44,13.40
2015,09,23,14,45,13.50
2015,09,23,14,46,13.50
2015,09,23,14,47,13.50
2015,09,23,14,48,13.50
2015,09,23,14,49,13.60
2015,09,23,14,50,13.60
2015,09,23,14,51,13.60
2015,09,23,14,52,13.60
2015,09,23,14,53,13.60
2015,09,23,14,54,13.60
2015,09,23,14,55,13.60
2015,09,23,14,56,13.60
2015,09,23,14,57,13.60
2015,09,23,14,58,13.60
2015,09,23,14,59,13.60
2015,09,23,15,00,13.60
2015,09,23,15,01,13.60
2015,09,23,15,02,13.60
2015,09,23,15,03,13.60
2015,09,23,15,04,13.60
2015,09,23,15,05,13.70
2015,09,23,15,06,13.70
2015,09,23,15,07,13.60
2015,09,23,15,08,13.60
2015,09,23,15,09,13.60
2015,09,23,15,10,13.60
2015,09,23,15,11,13.60
2015,09,23,15,12,13.60
2015,09,23,15,13,13.60
2015,09,23,15,14,13.60
2015,09,23,15,15,13.60
2015,09,23,15,16,13.60
2015,09,23,15,17,13.60
2015,09,23,15,18,13.60
2015,09,23,15,19,13.60
2015,09,23,15,20,13.60
2015,09,23,15,21,13.60
2015,09,23,15,22,13.60
2015,09,23,15,23,13.60
2015,09,23,15,24,13.60
2015,09,23,15,25,13.60
2015,09,23,15,26,13.60
2015,09,23,15,27,13.60
2015,09,23,15,28,13.60
2015,09,23,15,29,13.60
2015,09,23,15,30,13.60
2015,09,23,15,31,13.60
2015,09,23,15,32,13.60
2015,09,23,15,33,13.60
2015,09,23,15,34,13.60
2015,09,23,15,35,13.50
2015,09,23,15,36,13.50
2015,09,23,15,37,13.50
2015,09,23,15,38,13.40
2015,09,23,15,39,13.40
2015,09,23,15,40,13.40
2015,09,23,15,41,13.40
2015,09,23,15,42,13.40
2015,09,23,15,43,13.30
2015,09,23,15,44,13.30
2015,09,23,15,45,13.30
2015,09,23,15,46,13.30
2015,09,23,15,47,13.30
2015,09,23,15,48,13.30
2015,09,23,15,49,13.30
2015,09,23,15,50,13.30
2015,09,23,15,51,13.30
2015,09,23,15,52,13.30
2015,09,23,15,53,13.20
2015,09,23,15,54,13.20
2015,09,23,15,55,13.20
2015,09,23,15,56,13.20
2015,09,23,15,57,13.20
2015,09,23,15,58,13.20
2015,09,23,15,59,13.20
2015,09,23,16,00,13.20
2015,09,23,16,01,13.20
2015,09,23,16,02,13.20
2015,09,23,16,03,13.20
2015,09,23,16,04,13.20
2015,09,23,16,05,13.20
2015,09,23,16,06,13.20
2015,09,23,16,07,13.20
2015,09,23,16,08,13.20
2015,09,23,16,09,13.20
2015,09,23,16,10,13.20
2015,09,23,16,11,13.20
2015,09,23,16,12,13.20
2015,09,23,16,13,13.20
2015,09,23,16,14,13.20
2015,09,23,16,15,13.20
2015,09,23,16,16,13.10
2015,09,23,16,17,13.10
2015,09,23,16,18,13.10
2015,09,23,16,19,13.10
2015,09,23,16,20,13.10
2015,09,23,16,21,13.10
2015,09,23,16,22,13.10
2015,09,23,16,23,13.20
2015,09,23,16,24,13.10
2015,09,23,16,25,13.10
2015,09,23,16,26,13.10
2015,09,23,16,27,13.20
2015,09,23,16,28,13.20
2015,09,23,16,29,13.20
2015,09,23,16,30,13.20
2015,09,23,16,31,13.20
2015,09,23,16,32,13.20
2015,09,23,16,33,13.20
2015,09,23,16,34,13.20
2015,09,23,16,35,13.20
2015,09,23,16,36,13.20
2015,09,23,16,37,13.20
2015,09,23,16,38,13.20
2015,09,23,16,39,13.20
2015,09,23,16,40,13.20
2015,09,23,16,41,13.10
2015,09,23,16,42,13.20
2015,09,23,16,43,13.20
2015,09,23,16,44,13.20
2015,09,23,16,45,13.10
2015,09,23,16,46,13.10
2015,09,23,16,47,13.20
2015,09,23,16,48,13.10
2015,09,23,16,49,13.20
2015,09,23,16,50,13.10
2015,09,23,16,51,13.10
2015,09,23,16,52,13.10
2015,09,23,16,53,13.10
2015,09,23,16,54,13.10
2015,09,23,16,55,13.10
2015,09,23,16,56,13.10
2015,09,23,16,57,13.20
2015,09,23,16,58,13.20
2015,09,23,16,59,13.20
2015,09,23,17,00,13.20
2015,09,23,17,01,13.20
2015,09,23,17,02,13.20
2015,09,23,17,03,13.20
2015,09,23,17,04,13.20
2015,09,23,17,05,13.20
2015,09,23,17,06,13.20
2015,09,23,17,07,13.20
2015,09,23,17,08,13.20
2015,09,23,17,09,13.20
2015,09,23,17,10,13.20
2015,09,23,17,11,13.20
2015,09,23,17,12,13.10
2015,09,23,17,13,13.10
2015,09,23,17,14,13.00
2015,09,23,17,15,13.00
2015,09,23,17,16,12.90
2015,09,23,17,17,12.90
2015,09,23,17,18,13.00
2015,09,23,17,19,12.90
2015,09,23,17,20,12.90
2015,09,23,17,21,12.90
2015,09,23,17,22,12.90
2015,09,23,17,23,12.90
2015,09,23,17,24,12.80
2015,09,23,17,25,12.80
2015,09,23,17,26,12.80
2015,09,23,17,27,12.80
2015,09,23,17,28,12.90
2015,09,23,17,29,12.90
2015,09,23,17,30,12.90
2015,09,23,17,31,12.90
2015,09,23,17,32,12.90
2015,09,23,17,33,12.90
2015,09,23,17,34,13.00
2015,09,23,17,35,13.00